SV8FES-1 Weather Reports


Display with metric or nautical units.
time (UTC)temp
F
wind
direction
speed
MPH
gust
MPH
rain 1hr
in
rain 24hr
in
rain mn
in
humidity
%
barometer
mb
20260504100416 62 319 15.0 35.0 0.00 0.03 0.00 46 1018.1
20260504100304 62 318 15.0 33.0 0.00 0.03 0.00 46 1018.1
20260504100216 62 315 15.0 33.0 0.00 0.03 0.00 46 1018.0
20260504100104 62 315 15.0 33.0 0.00 0.03 0.00 45 1018.0
20260504090105 62 318 12.0 29.0 0.00 0.04 0.00 48 1018.0
20260504081904 60 326 11.0 31.0 0.00 0.04 0.00 47 1017.8
20260504081817 60 327 11.0 31.0 0.00 0.04 0.00 47 1017.8
20260504081705 60 331 11.0 31.0 0.00 0.04 0.00 47 1017.8
20260504081618 60 329 11.0 31.0 0.00 0.04 0.00 47 1017.8
20260504081505 60 330 12.0 31.0 0.00 0.04 0.00 47 1017.8
20260504081418 60 323 12.0 33.0 0.00 0.04 0.00 47 1017.7
20260504081304 60 326 12.0 33.0 0.00 0.04 0.00 47 1017.8
20260504081218 60 324 12.0 33.0 0.00 0.04 0.00 47 1017.8
20260504081104 60 326 12.0 33.0 0.00 0.04 0.00 48 1017.8
20260504081017 60 324 12.0 37.0 0.00 0.04 0.00 48 1017.8
20260504080904 60 322 12.0 37.0 0.00 0.04 0.00 48 1017.6
20260504080817 60 321 12.0 37.0 0.00 0.04 0.00 49 1017.7
20260504080704 60 324 12.0 37.0 0.00 0.04 0.00 49 1017.7
20260504080617 60 324 12.0 37.0 0.00 0.04 0.00 49 1017.6
20260504080504 60 324 11.0 37.0 0.00 0.04 0.00 49 1017.6
20260504080417 60 328 11.0 37.0 0.00 0.04 0.00 49 1017.7
20260504080304 59 332 11.0 37.0 0.00 0.04 0.00 50 1017.7
20260504080218 59 333 11.0 37.0 0.00 0.04 0.00 50 1017.7
20260504080105 59 331 11.0 37.0 0.00 0.04 0.00 49 1017.7
20260504070304 60 327 13.0 35.0 0.00 0.04 0.00 49 1017.1
20260504070219 60 325 13.0 35.0 0.00 0.04 0.00 50 1017.2
20260504070104 60 322 13.0 35.0 0.00 0.04 0.00 51 1017.0
20260504060221 58 329 10.0 28.0 0.00 0.04 0.00 54 1016.6
20260504060105 58 336 10.0 28.0 0.00 0.04 0.00 55 1016.6
20260504050704 57 325 11.0 28.0 0.00 0.04 0.00 57 1016.4
20260504050620 57 325 11.0 31.0 0.00 0.04 0.00 56 1016.4
20260504050504 57 326 10.0 31.0 0.00 0.04 0.00 56 1016.3
20260504050419 57 326 10.0 31.0 0.00 0.04 0.00 56 1016.4
20260504050304 57 325 10.0 31.0 0.00 0.04 0.00 57 1016.3
20260504050219 57 327 9.0 31.0 0.00 0.04 0.00 57 1016.3
20260504050104 57 330 9.0 31.0 0.00 0.04 0.00 57 1016.2
20260504050020 57 331 9.0 31.0 0.00 0.04 0.00 57 1016.2
20260504045904 57 339 9.0 31.0 0.00 0.04 0.00 57 1016.1
20260504045821 57 338 10.0 31.0 0.00 0.04 0.00 57 1016.3
20260504045704 57 337 10.0 31.0 0.00 0.04 0.00 57 1016.2
20260504045619 56 339 10.0 28.0 0.00 0.04 0.00 57 1016.1
20260504045505 57 335 11.0 28.0 0.00 0.04 0.00 57 1016.1
20260504045420 57 332 11.0 28.0 0.00 0.04 0.00 57 1016.1
20260504045305 57 335 11.0 28.0 0.00 0.04 0.00 57 1016.1
20260504045219 57 336 11.0 28.0 0.00 0.04 0.00 57 1016.1
20260504045104 57 337 12.0 28.0 0.00 0.04 0.00 57 1016.2
20260504045020 57 333 12.0 28.0 0.00 0.04 0.00 57 1016.1
20260504044905 57 326 11.0 28.0 0.00 0.04 0.00 57 1016.1
20260504044820 57 325 11.0 28.0 0.00 0.04 0.00 57 1016.1
20260504044705 57 329 11.0 28.0 0.00 0.04 0.00 57 1016.1
20260504044620 57 327 11.0 28.0 0.00 0.04 0.00 57 1016.1
20260504044505 57 328 11.0 28.0 0.00 0.04 0.00 57 1016.1
20260504044420 57 330 11.0 28.0 0.00 0.04 0.00 57 1016.2
20260504044305 57 328 10.0 28.0 0.00 0.04 0.00 56 1016.2
20260504044220 57 326 10.0 28.0 0.00 0.04 0.00 56 1016.2
20260504044105 57 327 10.0 28.0 0.00 0.04 0.00 56 1016.2
20260504044020 57 325 10.0 29.0 0.00 0.04 0.00 56 1016.4
20260504043904 57 325 10.0 29.0 0.00 0.04 0.00 57 1016.2
20260504043819 57 325 10.0 29.0 0.00 0.04 0.00 57 1016.2
20260504043704 57 322 10.0 29.0 0.00 0.04 0.00 58 1016.1
20260504043620 57 326 10.0 29.0 0.00 0.04 0.00 58 1016.1
20260504043504 57 325 10.0 29.0 0.00 0.04 0.00 58 1016.2
20260504043419 56 327 10.0 29.0 0.00 0.04 0.00 58 1016.1
20260504043304 56 329 10.0 29.0 0.00 0.04 0.00 58 1016.1
20260504043220 56 331 10.0 29.0 0.00 0.04 0.00 58 1016.1
20260504043104 56 333 10.0 29.0 0.00 0.04 0.00 59 1016.1
20260504043019 56 334 10.0 28.0 0.00 0.04 0.00 59 1016.1
20260504042904 56 337 10.0 28.0 0.00 0.04 0.00 59 1016.2
20260504042821 56 336 10.0 28.0 0.00 0.04 0.00 59 1016.1
20260504042705 56 332 10.0 28.0 0.00 0.04 0.00 59 1016.1
20260504042619 56 331 11.0 28.0 0.00 0.04 0.00 58 1016.2
20260504042504 56 331 11.0 33.0 0.00 0.04 0.00 58 1016.1
20260504042420 56 328 11.0 33.0 0.00 0.04 0.00 58 1016.1
20260504042305 56 325 11.0 35.0 0.00 0.04 0.00 58 1016.3
20260504042220 56 325 11.0 35.0 0.00 0.04 0.00 59 1016.1
20260504042105 56 321 11.0 35.0 0.00 0.04 0.00 58 1016.2
20260504042020 56 322 11.0 35.0 0.00 0.04 0.00 58 1016.0
20260504041904 56 320 11.0 41.0 0.00 0.04 0.00 58 1016.1
20260504041820 56 319 11.0 41.0 0.00 0.04 0.00 58 1016.2
20260504041705 56 321 11.0 41.0 0.00 0.04 0.00 58 1016.1
20260504041619 56 320 11.0 41.0 0.00 0.04 0.00 58 1016.0
20260504041504 56 317 11.0 41.0 0.00 0.04 0.00 58 1016.1
20260504041420 56 317 11.0 41.0 0.00 0.04 0.00 58 1016.1
20260504041305 56 317 11.0 41.0 0.00 0.04 0.00 58 1015.9
20260504041219 56 316 11.0 41.0 0.00 0.04 0.00 59 1016.0
20260504041104 56 312 11.0 41.0 0.00 0.04 0.00 59 1015.9
20260504041020 56 310 11.0 41.0 0.00 0.04 0.00 59 1016.0
20260504040905 56 309 11.0 31.0 0.00 0.04 0.00 59 1016.0
20260504040820 56 310 11.0 31.0 0.00 0.04 0.00 60 1016.0
20260504040705 56 309 11.0 31.0 0.00 0.04 0.00 60 1015.9
20260504040621 56 307 11.0 22.0 0.00 0.04 0.00 60 1016.1
20260504040504 56 306 12.0 22.0 0.00 0.04 0.00 60 1016.0
20260504040420 56 302 12.0 26.0 0.00 0.04 0.00 60 1015.8
20260504040304 56 292 12.0 26.0 0.00 0.04 0.00 60 1015.8
20260504040221 56 287 12.0 26.0 0.00 0.04 0.00 60 1015.8
20260503225918 56 324 11.0 39.0 0.00 0.06 0.00 59 1015.2
20260503225804 56 327 11.0 39.0 0.00 0.06 0.00 59 1015.4
20260503225718 56 332 11.0 39.0 0.00 0.06 0.00 59 1015.2
20260503225604 56 333 10.0 39.0 0.00 0.06 0.00 59 1015.3
20260503225519 56 334 10.0 39.0 0.00 0.06 0.00 59 1015.3
20260503225404 56 332 10.0 39.0 0.00 0.06 0.00 59 1015.1
20260503225318 56 333 10.0 39.0 0.00 0.06 0.00 59 1015.1
20260503225204 56 335 11.0 29.0 0.00 0.06 0.00 59 1015.1
20260503225119 56 340 11.0 29.0 0.00 0.06 0.00 59 1015.1
20260503225004 56 341 11.0 29.0 0.00 0.06 0.00 59 1015.2
20260503224919 56 336 12.0 29.0 0.00 0.06 0.00 59 1015.1
20260503224803 56 335 12.0 29.0 0.00 0.06 0.00 59 1015.2
20260503224718 56 333 12.0 29.0 0.00 0.06 0.00 60 1015.2
20260503224604 56 329 13.0 29.0 0.00 0.06 0.00 60 1015.2
20260503224519 56 329 13.0 31.0 0.00 0.06 0.00 60 1015.1
20260503224403 56 329 14.0 31.0 0.00 0.06 0.00 60 1015.2
20260503224319 56 326 14.0 31.0 0.00 0.06 0.00 60 1015.2
20260503224204 56 326 14.0 31.0 0.00 0.06 0.00 60 1015.1
20260503224118 56 322 15.0 31.0 0.00 0.06 0.00 59 1015.1
20260503224004 56 321 15.0 35.0 0.00 0.06 0.00 59 1015.1
20260503223918 56 322 15.0 35.0 0.00 0.06 0.00 59 1015.1
20260503223804 56 320 14.0 42.0 0.00 0.06 0.00 59 1015.1
20260503223718 56 317 14.0 42.0 0.00 0.06 0.00 59 1015.1
20260503223604 56 314 14.0 42.0 0.00 0.06 0.00 60 1015.3
20260503223519 56 315 14.0 42.0 0.00 0.06 0.00 60 1015.2
20260503223404 56 314 14.0 42.0 0.00 0.06 0.00 61 1015.2
20260503223319 56 314 13.0 42.0 0.00 0.06 0.00 61 1015.1
20260503223204 56 314 13.0 42.0 0.00 0.06 0.00 61 1015.1
20260503223119 56 316 13.0 42.0 0.00 0.06 0.00 62 1015.2
20260503223004 56 315 13.0 42.0 0.00 0.06 0.00 63 1015.0
20260503222918 56 316 13.0 42.0 0.00 0.06 0.00 63 1015.2
20260503222804 56 316 13.0 33.0 0.00 0.06 0.00 64 1015.0
20260503222718 56 319 13.0 31.0 0.00 0.06 0.00 64 1015.0
20260503222604 56 321 14.0 31.0 0.00 0.06 0.00 64 1014.9
20260503222518 56 320 14.0 31.0 0.00 0.06 0.00 63 1015.0
20260503222404 56 317 14.0 31.0 0.00 0.06 0.00 63 1015.0
20260503222320 56 317 14.0 42.0 0.00 0.06 0.00 63 1015.0
20260503222204 56 317 14.0 42.0 0.00 0.06 0.00 63 1015.0
20260503222118 56 317 14.0 42.0 0.00 0.06 0.00 63 1014.9
20260503222004 56 318 15.0 42.0 0.00 0.06 0.00 64 1014.9
20260503221918 56 320 15.0 42.0 0.00 0.06 0.00 64 1015.0
20260503221804 56 320 15.0 42.0 0.00 0.06 0.00 63 1015.0
20260503221718 56 319 15.0 42.0 0.00 0.06 0.00 63 1015.0
20260503221604 56 320 15.0 42.0 0.00 0.06 0.00 62 1015.0
20260503221518 56 319 15.0 42.0 0.00 0.06 0.00 62 1015.1
20260503221404 56 321 15.0 42.0 0.00 0.06 0.00 63 1015.1
20260503221318 56 320 14.0 42.0 0.00 0.06 0.00 62 1015.0
20260503221204 56 321 14.0 42.0 0.00 0.06 0.00 62 1014.8
20260503221118 56 320 14.0 42.0 0.00 0.06 0.00 61 1015.0
20260503221004 56 318 14.0 42.0 0.00 0.06 0.00 61 1015.0
20260503220918 56 316 13.0 42.0 0.00 0.06 0.00 61 1014.8
20260503220804 56 316 13.0 39.0 0.00 0.06 0.00 62 1015.0
20260503220718 56 319 13.0 41.0 0.00 0.06 0.00 62 1014.9
20260503220604 56 317 12.0 41.0 0.00 0.06 0.00 64 1015.0
20260503220518 56 318 12.0 41.0 0.00 0.06 0.00 64 1014.9
20260503220404 56 320 12.0 41.0 0.00 0.06 0.00 65 1014.8
20260503220319 56 324 12.0 41.0 0.00 0.06 0.00 64 1014.8
20260503220204 56 325 13.0 41.0 0.00 0.06 0.00 64 1014.9
20260503220118 56 329 13.0 41.0 0.00 0.06 0.00 64 1014.8
20260503220004 56 332 13.0 41.0 0.00 0.06 0.00 64 1014.9
20260503215918 56 332 13.0 41.0 0.00 0.06 0.00 64 1014.9
20260503215804 56 333 14.0 41.0 0.00 0.06 0.00 64 1014.9
20260503215718 56 332 14.0 41.0 0.00 0.06 0.00 63 1014.8
20260503215603 56 334 15.0 28.0 0.00 0.06 0.00 64 1015.0
20260503215518 56 332 15.0 41.0 0.00 0.06 0.00 64 1014.9
20260503215404 56 328 15.0 41.0 0.00 0.06 0.00 64 1014.9
20260503215318 56 326 16.0 41.0 0.00 0.06 0.00 65 1014.9
20260503215204 56 324 16.0 41.0 0.00 0.06 0.00 65 1014.8
20260503215118 56 321 16.0 41.0 0.00 0.06 0.00 65 1014.9
20260503215004 56 320 16.0 41.0 0.00 0.06 0.00 65 1014.9
20260503214918 56 319 16.0 41.0 0.00 0.06 0.00 65 1014.7
20260503214804 56 319 16.0 41.0 0.00 0.06 0.00 65 1014.8
20260503214719 56 319 16.0 41.0 0.00 0.06 0.00 65 1014.8
20260503214604 56 319 16.0 41.0 0.00 0.06 0.00 65 1014.7
20260503214518 56 322 16.0 48.0 0.00 0.06 0.00 65 1014.8
20260503214404 56 321 16.0 48.0 0.00 0.06 0.00 65 1014.6
20260503214318 56 322 15.0 48.0 0.00 0.06 0.00 65 1014.7
20260503214204 56 323 15.0 48.0 0.00 0.06 0.00 65 1014.8
20260503214118 56 324 15.0 48.0 0.00 0.06 0.00 65 1014.8
20260503214004 56 324 15.0 48.0 0.00 0.06 0.00 65 1014.7
20260503213918 56 325 15.0 48.0 0.00 0.06 0.00 65 1014.9
20260503213804 56 326 14.0 48.0 0.00 0.06 0.00 65 1014.7
20260503213718 56 324 14.0 53.0 0.00 0.06 0.00 64 1014.7
20260503213604 56 323 14.0 53.0 0.00 0.06 0.00 64 1014.8
20260503213518 56 322 14.0 53.0 0.00 0.06 0.00 64 1014.8
20260503213404 56 322 14.0 53.0 0.00 0.06 0.00 64 1014.9
20260503213318 56 320 13.0 53.0 0.00 0.06 0.00 65 1014.9
20260503213203 56 322 13.0 53.0 0.00 0.06 0.00 65 1014.8
20260503213118 56 322 13.0 53.0 0.00 0.06 0.00 66 1014.8
20260503213004 56 323 13.0 53.0 0.00 0.06 0.00 66 1014.8
20260503212918 56 321 14.0 53.0 0.00 0.06 0.00 66 1014.8
20260503212803 56 322 14.0 53.0 0.00 0.06 0.00 66 1014.7
20260503212718 56 329 14.0 31.0 0.00 0.06 0.00 67 1014.7
20260503212604 56 335 14.0 31.0 0.00 0.06 0.00 67 1014.7
20260503212518 56 337 15.0 31.0 0.00 0.06 0.00 66 1014.8
20260503212403 55 341 15.0 31.0 0.00 0.06 0.00 66 1014.7
20260503212318 55 347 15.0 31.0 0.00 0.06 0.00 66 1014.8
20260503212204 55 344 15.0 33.0 0.00 0.06 0.00 66 1014.7
20260503212118 55 339 16.0 57.0 0.00 0.06 0.00 66 1014.7
20260503212004 55 337 16.0 57.0 0.00 0.06 0.00 66 1014.6
20260503211919 55 339 16.0 57.0 0.00 0.06 0.00 66 1014.5
20260503211803 55 336 16.0 57.0 0.00 0.06 0.00 66 1014.6
20260503211718 55 334 16.0 57.0 0.00 0.06 0.00 65 1014.6
20260503211604 55 330 16.0 57.0 0.00 0.06 0.00 65 1014.9
20260503211518 55 327 15.0 57.0 0.00 0.06 0.00 65 1014.6
20260503211405 55 326 15.0 57.0 0.00 0.06 0.00 65 1014.7
20260503211304 55 323 15.0 57.0 0.00 0.06 0.00 66 1014.8
20260503211218 56 323 15.0 57.0 0.00 0.06 0.00 66 1014.8
20260503211104 56 328 15.0 42.0 0.00 0.06 0.00 68 1014.6
20260503211019 56 329 15.0 42.0 0.00 0.06 0.00 67 1014.9
20260503210904 56 328 14.0 42.0 0.00 0.06 0.00 68 1014.8
20260503210818 56 327 14.0 42.0 0.00 0.06 0.00 67 1014.8
20260503210704 56 327 14.0 42.0 0.00 0.06 0.00 67 1014.6
20260503210618 56 329 14.0 44.0 0.00 0.06 0.00 67 1014.7
20260503210504 56 333 14.0 44.0 0.00 0.06 0.00 67 1014.8
20260503210418 56 333 14.0 44.0 0.00 0.06 0.00 67 1014.7
20260503210303 56 333 14.0 44.0 0.00 0.06 0.00 67 1014.6
20260503210218 56 337 14.0 44.0 0.00 0.06 0.00 67 1014.6
20260503210103 56 339 14.0 44.0 0.00 0.06 0.00 67 1014.5
20260503210025 56 337 14.0 44.0 0.00 0.06 0.00 67 1014.5
20260503205904 56 338 14.0 44.0 0.00 0.06 0.06 67 1014.5
20260503205818 56 338 14.0 44.0 0.00 0.06 0.06 67 1014.5
20260503205704 56 334 14.0 44.0 0.00 0.06 0.06 67 1014.5
20260503205618 56 331 14.0 42.0 0.00 0.06 0.06 67 1014.5
20260503205504 56 326 14.0 42.0 0.00 0.06 0.06 67 1014.7
20260503205418 56 328 14.0 42.0 0.00 0.06 0.06 68 1014.8
20260503205304 56 327 15.0 42.0 0.00 0.06 0.06 68 1014.6
20260503205218 56 326 15.0 42.0 0.00 0.06 0.06 68 1014.5
20260503205104 56 323 15.0 42.0 0.00 0.06 0.06 68 1014.6
20260503205019 56 328 15.0 42.0 0.00 0.06 0.06 69 1014.5
20260503204905 56 330 15.0 42.0 0.00 0.06 0.06 69 1014.3
20260503204819 56 332 15.0 42.0 0.00 0.06 0.06 69 1014.4
20260503204704 56 332 14.0 35.0 0.00 0.06 0.06 69 1014.6
20260503204618 56 332 14.0 35.0 0.00 0.06 0.06 69 1014.4
20260503204504 56 335 13.0 35.0 0.00 0.06 0.06 69 1014.4
20260503204417 56 331 13.0 35.0 0.00 0.06 0.06 69 1014.4
20260503204303 56 333 12.0 35.0 0.00 0.06 0.06 69 1014.3
20260503204218 56 336 12.0 35.0 0.00 0.06 0.06 69 1014.3
20260503204104 56 332 12.0 35.0 0.00 0.06 0.06 69 1014.5
20260503204018 56 328 12.0 35.0 0.00 0.06 0.06 69 1014.5
20260503203904 56 327 12.0 35.0 0.00 0.06 0.06 69 1014.4
20260503203819 56 329 12.0 35.0 0.00 0.06 0.06 69 1014.3
20260503203704 56 331 12.0 35.0 0.00 0.06 0.06 69 1014.4
20260503203617 56 331 12.0 33.0 0.00 0.06 0.06 69 1014.5
20260503203504 56 328 12.0 33.0 0.00 0.06 0.06 70 1014.6
20260503203418 56 327 13.0 33.0 0.00 0.06 0.06 71 1014.7
20260503203304 56 323 13.0 28.0 0.00 0.06 0.06 71 1014.2
20260503203218 56 321 13.0 28.0 0.00 0.06 0.06 71 1014.2
20260503203104 56 324 13.0 35.0 0.00 0.06 0.06 71 1014.3
20260503203018 56 322 13.0 35.0 0.00 0.06 0.06 71 1014.2
20260503202904 56 320 13.0 35.0 0.00 0.06 0.06 72 1014.2
20260503202818 56 316 13.0 35.0 0.00 0.06 0.06 72 1014.2
20260503202704 56 316 13.0 35.0 0.00 0.06 0.06 72 1014.3
20260503202618 56 320 13.0 35.0 0.00 0.06 0.06 71 1014.3
20260503202504 55 323 13.0 35.0 0.00 0.06 0.06 72 1014.3
20260503202418 55 328 13.0 35.0 0.00 0.06 0.06 71 1014.4
20260503202304 55 332 13.0 35.0 0.00 0.06 0.06 71 1014.3
20260503202217 55 333 13.0 35.0 0.00 0.06 0.06 72 1014.3
20260503202103 55 331 14.0 35.0 0.00 0.06 0.06 72 1014.3
20260503202018 55 332 14.0 35.0 0.00 0.06 0.06 72 1014.4
20260503201904 54 336 14.0 35.0 0.00 0.06 0.06 72 1014.3
20260503201818 54 338 15.0 35.0 0.00 0.06 0.06 72 1014.4
20260503201704 54 336 15.0 35.0 0.00 0.06 0.06 72 1014.5
20260503201618 54 328 16.0 31.0 0.00 0.06 0.06 72 1014.5
20260503201504 54 327 16.0 35.0 0.00 0.06 0.06 72 1014.4
20260503201418 54 324 16.0 35.0 0.00 0.06 0.06 72 1014.4
20260503201304 54 321 17.0 35.0 0.00 0.06 0.06 72 1014.6
20260503201218 54 319 17.0 42.0 0.00 0.06 0.06 72 1014.4
20260503201104 54 321 17.0 44.0 0.00 0.06 0.06 71 1014.5
20260503201018 54 324 17.0 44.0 0.00 0.06 0.06 71 1014.5
20260503200903 54 324 17.0 44.0 0.00 0.06 0.06 70 1014.6
20260503200818 54 324 16.0 44.0 0.00 0.06 0.06 70 1014.5
20260503200704 54 327 16.0 44.0 0.00 0.06 0.06 70 1014.6
20260503200618 54 326 16.0 44.0 0.00 0.06 0.06 69 1014.4
20260503200504 55 325 15.0 44.0 0.00 0.06 0.06 69 1014.4
20260503200418 55 327 15.0 44.0 0.00 0.06 0.06 69 1014.6
20260503200304 55 329 15.0 44.0 0.00 0.06 0.06 69 1014.8
20260503200218 56 332 14.0 44.0 0.00 0.06 0.06 70 1014.5
20260503200104 56 333 14.0 41.0 0.01 0.06 0.06 70 1014.5
20260503200018 56 332 14.0 41.0 0.01 0.06 0.06 69 1014.5
20260503195904 56 328 13.0 41.0 0.02 0.06 0.06 69 1014.2
20260503195818 56 330 13.0 41.0 0.02 0.06 0.06 69 1014.1
20260503195704 56 329 13.0 41.0 0.02 0.06 0.06 69 1014.3
20260503195619 56 331 12.0 37.0 0.02 0.06 0.06 69 1014.3
20260503195505 56 332 12.0 37.0 0.02 0.06 0.06 69 1014.5
20260503195419 56 328 12.0 37.0 0.02 0.06 0.06 69 1014.5
20260503195305 56 326 12.0 37.0 0.02 0.06 0.06 69 1014.3
20260503195218 56 325 11.0 33.0 0.02 0.06 0.06 69 1014.3
20260503195104 56 323 11.0 33.0 0.02 0.06 0.06 69 1014.2
20260503195018 56 323 11.0 33.0 0.02 0.06 0.06 70 1014.3
20260503194904 56 326 11.0 31.0 0.02 0.06 0.06 70 1014.3
20260503194818 56 323 11.0 31.0 0.02 0.06 0.06 70 1014.2
20260503194704 56 324 11.0 31.0 0.02 0.06 0.06 70 1014.2
20260503194618 56 325 11.0 31.0 0.02 0.06 0.06 70 1014.2
20260503194504 55 324 12.0 31.0 0.02 0.06 0.06 70 1014.2
20260503194418 55 323 12.0 31.0 0.03 0.06 0.06 70 1014.2
20260503194304 55 320 12.0 29.0 0.03 0.06 0.06 71 1014.1
20260503194218 55 322 13.0 29.0 0.03 0.06 0.06 71 1014.2
20260503194104 55 326 13.0 26.0 0.03 0.06 0.06 71 1014.2
20260503194018 55 326 13.0 26.0 0.03 0.06 0.06 71 1014.2
20260503193904 55 321 14.0 26.0 0.03 0.06 0.06 72 1014.3
20260503193818 55 325 14.0 31.0 0.03 0.06 0.06 72 1014.3
20260503193704 55 326 14.0 31.0 0.03 0.06 0.06 72 1014.1
20260503193618 55 329 15.0 31.0 0.03 0.06 0.06 72 1014.1
20260503193505 55 329 15.0 31.0 0.03 0.06 0.06 72 1014.2
20260503193419 55 331 15.0 31.0 0.03 0.06 0.06 72 1014.1
20260503193305 55 333 15.0 31.0 0.03 0.06 0.06 72 1014.0
20260503193218 55 327 15.0 31.0 0.03 0.06 0.06 72 1014.3
20260503193104 54 324 14.0 31.0 0.03 0.06 0.06 72 1014.2
20260503193018 54 324 14.0 31.0 0.03 0.06 0.06 72 1014.0
20260503192904 54 323 14.0 41.0 0.03 0.06 0.06 72 1014.1
20260503192818 54 318 14.0 41.0 0.03 0.06 0.06 72 1014.2
20260503192704 54 317 13.0 41.0 0.03 0.06 0.06 72 1014.2
20260503192618 54 316 13.0 41.0 0.03 0.06 0.06 72 1014.3
20260503192504 54 316 13.0 41.0 0.03 0.06 0.06 73 1014.4
20260503192418 54 315 13.0 41.0 0.03 0.06 0.06 73 1014.2
20260503192305 54 319 13.0 41.0 0.03 0.06 0.06 74 1014.2
20260503192218 54 326 13.0 41.0 0.03 0.06 0.06 74 1014.3
20260503192104 54 326 13.0 41.0 0.03 0.06 0.06 75 1014.3
20260503192018 54 327 14.0 41.0 0.03 0.06 0.06 75 1014.3
20260503191904 53 329 14.0 39.0 0.03 0.06 0.06 76 1014.0
20260503191818 53 330 15.0 31.0 0.03 0.06 0.06 76 1014.2
20260503191704 53 331 15.0 33.0 0.03 0.06 0.06 76 1014.3
20260503191619 53 329 16.0 33.0 0.03 0.06 0.06 76 1014.2
20260503191505 53 325 16.0 33.0 0.03 0.06 0.06 77 1014.1
20260503191419 53 324 16.0 39.0 0.03 0.06 0.06 77 1014.0
20260503191304 53 321 17.0 39.0 0.03 0.06 0.06 77 1014.1
20260503191218 53 321 17.0 39.0 0.03 0.06 0.06 77 1014.1
20260503191104 53 321 17.0 39.0 0.03 0.06 0.06 77 1014.0
20260503191019 53 320 16.0 39.0 0.03 0.06 0.06 77 1014.1
20260503190905 53 320 16.0 39.0 0.03 0.06 0.06 77 1013.9
20260503190819 53 326 16.0 39.0 0.03 0.06 0.06 77 1014.0
20260503190704 53 326 16.0 41.0 0.03 0.06 0.06 77 1014.2
20260503190618 53 330 15.0 41.0 0.03 0.06 0.06 77 1014.1
20260503190504 53 331 15.0 41.0 0.03 0.06 0.06 76 1014.1
20260503190418 53 334 15.0 41.0 0.03 0.06 0.06 76 1014.2
20260503190305 53 335 15.0 41.0 0.03 0.06 0.06 76 1014.3
20260503190218 53 336 15.0 41.0 0.02 0.06 0.06 75 1014.1
20260503190105 53 342 15.0 41.0 0.02 0.06 0.06 75 1014.2
20260503190017 54 348 14.0 41.0 0.02 0.05 0.05 74 1014.4
20260503185904 54 349 14.0 41.0 0.02 0.05 0.05 74 1014.2
20260503185817 54 341 14.0 41.0 0.01 0.04 0.04 74 1014.1
20260503185704 54 338 14.0 39.0 0.01 0.04 0.04 74 1014.1
20260503185617 55 333 14.0 39.0 0.01 0.04 0.04 73 1014.1
20260503185504 55 333 14.0 39.0 0.01 0.04 0.04 73 1014.0
20260503185418 55 332 14.0 39.0 0.01 0.04 0.04 73 1013.9
20260503185305 55 335 13.0 39.0 0.01 0.04 0.04 73 1013.8
20260503185217 55 336 13.0 39.0 0.01 0.04 0.04 73 1013.8
20260503185104 55 332 14.0 39.0 0.01 0.04 0.04 73 1013.9
20260503185017 55 331 14.0 39.0 0.01 0.04 0.04 73 1013.7
20260503184904 54 331 14.0 39.0 0.01 0.04 0.04 73 1013.6
20260503184817 54 334 14.0 33.0 0.01 0.04 0.04 73 1013.5
20260503184704 54 338 14.0 33.0 0.01 0.04 0.04 74 1013.6
20260503184617 54 343 14.0 33.0 0.01 0.04 0.04 74 1013.6
20260503184503 54 344 14.0 33.0 0.00 0.03 0.03 74 1013.7
20260503184417 54 343 15.0 33.0 0.00 0.03 0.03 74 1013.7
20260503184304 54 340 15.0 33.0 0.00 0.03 0.03 74 1013.5
20260503184217 54 336 15.0 33.0 0.00 0.03 0.03 74 1013.6
20260503184104 54 340 15.0 33.0 0.00 0.03 0.03 73 1013.6
20260503184016 54 338 15.0 33.0 0.00 0.03 0.03 73 1013.4
20260503183904 54 338 16.0 41.0 0.00 0.03 0.03 74 1013.6
20260503183817 54 339 16.0 41.0 0.00 0.03 0.03 74 1013.5
20260503183704 54 335 16.0 41.0 0.00 0.03 0.03 73 1013.7
20260503183617 54 330 16.0 44.0 0.00 0.03 0.03 73 1013.6
20260503183505 54 328 16.0 44.0 0.00 0.03 0.03 73 1013.8
20260503183417 54 331 15.0 44.0 0.00 0.03 0.03 73 1013.7
20260503183304 54 327 15.0 44.0 0.00 0.03 0.03 73 1013.8
20260503183217 54 325 15.0 44.0 0.00 0.03 0.03 72 1013.7
20260503183104 54 322 15.0 44.0 0.00 0.03 0.03 72 1013.7
20260503183017 54 322 14.0 44.0 0.00 0.03 0.03 72 1013.6
20260503182905 54 319 14.0 44.0 0.00 0.03 0.03 70 1013.5
20260503182816 55 318 14.0 44.0 0.00 0.03 0.03 69 1013.6
20260503182704 55 316 13.0 44.0 0.00 0.03 0.03 68 1013.5
20260503182617 56 316 13.0 44.0 0.00 0.03 0.03 68 1013.5
20260503182505 56 315 13.0 44.0 0.00 0.03 0.03 68 1013.6
20260503182417 56 312 14.0 44.0 0.00 0.03 0.03 68 1013.5
20260503182305 56 317 14.0 41.0 0.00 0.03 0.03 70 1013.4
20260503182217 56 321 14.0 35.0 0.00 0.03 0.03 70 1013.2
20260503182104 56 320 14.0 37.0 0.00 0.03 0.03 70 1013.4
20260503182017 56 317 14.0 37.0 0.00 0.03 0.03 70 1013.3
20260503181904 56 322 14.0 37.0 0.00 0.03 0.03 69 1013.2
20260503181816 56 323 14.0 37.0 0.00 0.03 0.03 69 1013.1
20260503181704 56 324 14.0 37.0 0.00 0.03 0.03 69 1013.2
20260503181616 55 325 14.0 37.0 0.00 0.03 0.03 69 1013.1
20260503181505 55 323 14.0 37.0 0.00 0.03 0.03 69 1013.2
20260503181417 55 324 13.0 37.0 0.00 0.03 0.03 69 1013.1
20260503181304 55 321 13.0 37.0 0.00 0.03 0.03 69 1013.3
20260503181216 55 323 12.0 37.0 0.00 0.03 0.03 69 1013.3
20260503181104 55 328 12.0 35.0 0.00 0.03 0.03 69 1013.3
20260503181016 55 332 12.0 35.0 0.00 0.03 0.03 69 1013.3
20260503180904 55 330 12.0 35.0 0.00 0.03 0.03 69 1013.4
20260503180817 55 332 12.0 35.0 0.00 0.03 0.03 69 1013.4
20260503180704 55 335 12.0 31.0 0.00 0.03 0.03 70 1013.4
20260503180617 55 336 12.0 31.0 0.00 0.03 0.03 70 1013.4
20260503180505 55 340 12.0 31.0 0.00 0.03 0.03 70 1013.4
20260503180416 55 340 12.0 31.0 0.00 0.03 0.03 70 1013.4
20260503180304 55 342 13.0 31.0 0.00 0.03 0.03 70 1013.3
20260503180216 55 340 13.0 31.0 0.00 0.03 0.03 70 1013.3
20260503180104 54 335 13.0 37.0 0.00 0.03 0.03 70 1013.2
20260503180017 54 330 13.0 37.0 0.00 0.03 0.03 70 1013.4
20260503175904 54 328 13.0 37.0 0.00 0.03 0.03 70 1013.3
20260503175816 54 324 13.0 37.0 0.00 0.03 0.03 70 1013.3
20260503175704 54 324 13.0 37.0 0.00 0.03 0.03 70 1013.2
20260503175616 54 325 13.0 41.0 0.00 0.03 0.03 70 1013.2
20260503175504 54 325 13.0 41.0 0.00 0.03 0.03 70 1013.3
20260503175417 54 326 14.0 41.0 0.00 0.03 0.03 70 1013.1
20260503175305 54 324 14.0 41.0 0.00 0.03 0.03 70 1013.2
20260503175216 54 321 14.0 41.0 0.00 0.03 0.03 70 1013.3
20260503175104 54 319 14.0 41.0 0.00 0.03 0.03 71 1013.1
20260503175016 54 322 14.0 41.0 0.00 0.03 0.03 70 1013.2
20260503174904 54 326 15.0 41.0 0.00 0.03 0.03 70 1013.3
20260503174817 54 326 15.0 46.0 0.00 0.03 0.03 71 1013.3
20260503174704 54 324 16.0 46.0 0.00 0.03 0.03 71 1013.4
20260503174617 54 319 16.0 46.0 0.00 0.03 0.03 71 1013.3
20260503174503 54 321 16.0 46.0 0.00 0.03 0.03 71 1013.3
20260503174417 54 323 16.0 46.0 0.00 0.03 0.03 71 1013.2
20260503174304 54 323 17.0 46.0 0.00 0.03 0.03 71 1013.2
20260503174216 54 325 17.0 46.0 0.00 0.03 0.03 71 1013.3
20260503174104 54 325 17.0 46.0 0.00 0.03 0.03 71 1013.3
20260503174016 54 324 17.0 46.0 0.00 0.03 0.03 71 1013.3
20260503173904 54 323 17.0 46.0 0.00 0.03 0.03 71 1013.3
20260503173817 54 323 17.0 42.0 0.00 0.03 0.03 71 1013.2
20260503173704 54 325 17.0 42.0 0.00 0.03 0.03 71 1013.3
20260503173616 54 326 17.0 42.0 0.00 0.03 0.03 70 1013.5
20260503173504 54 325 16.0 42.0 0.00 0.03 0.03 70 1013.6
20260503173417 54 323 16.0 42.0 0.00 0.03 0.03 70 1013.8
20260503173304 54 325 16.0 42.0 0.00 0.03 0.03 71 1013.3
20260503173217 54 325 16.0 42.0 0.00 0.03 0.03 71 1013.4
20260503173104 54 327 15.0 42.0 0.00 0.03 0.03 71 1013.4
20260503173017 54 328 15.0 42.0 0.00 0.03 0.03 71 1013.5
20260503172904 54 326 15.0 42.0 0.00 0.03 0.03 71 1013.4
20260503172817 54 324 15.0 42.0 0.00 0.03 0.03 71 1013.1
20260503172705 54 322 15.0 42.0 0.00 0.03 0.03 71 1013.4
20260503172617 54 322 15.0 37.0 0.00 0.03 0.03 70 1013.2
20260503172504 54 325 16.0 37.0 0.00 0.03 0.03 70 1013.2
20260503172416 54 326 16.0 37.0 0.00 0.03 0.03 70 1013.3
20260503172305 54 322 17.0 37.0 0.00 0.03 0.03 69 1013.2
20260503172218 54 322 17.0 31.0 0.00 0.03 0.03 69 1013.0
20260503172104 54 323 18.0 35.0 0.00 0.03 0.03 69 1013.1
20260503172017 54 323 18.0 48.0 0.00 0.03 0.03 69 1013.0
20260503171904 54 325 19.0 48.0 0.00 0.03 0.03 69 1013.0
20260503171817 54 327 19.0 48.0 0.00 0.03 0.03 69 1013.1
20260503171704 54 328 19.0 48.0 0.00 0.03 0.03 69 1013.0
20260503171617 54 327 19.0 48.0 0.00 0.03 0.03 69 1013.2
20260503171504 54 326 18.0 48.0 0.00 0.03 0.03 69 1013.2
20260503171417 54 324 18.0 48.0 0.00 0.03 0.03 69 1013.1
20260503171304 54 328 17.0 48.0 0.00 0.03 0.03 70 1013.3
20260503171217 54 327 17.0 48.0 0.00 0.03 0.03 70 1013.0
20260503171104 54 327 16.0 48.0 0.00 0.03 0.03 71 1013.0
20260503171017 54 326 16.0 46.0 0.00 0.03 0.03 71 1013.1
20260503170904 54 325 15.0 46.0 0.00 0.03 0.03 71 1013.2
20260503170817 55 326 15.0 46.0 0.00 0.03 0.03 71 1013.2
20260503170704 55 329 15.0 46.0 0.00 0.03 0.03 71 1013.1
20260503170617 55 331 15.0 46.0 0.00 0.03 0.03 70 1013.0
20260503170504 55 331 15.0 46.0 0.00 0.03 0.03 70 1012.9
20260503170417 55 331 15.0 46.0 0.00 0.03 0.03 70 1012.8
20260503170304 55 327 15.0 46.0 0.00 0.03 0.03 70 1013.0
20260503170217 55 328 15.0 46.0 0.00 0.03 0.03 70 1012.7
20260503170104 55 326 15.0 46.0 0.00 0.03 0.03 70 1012.7
20260503160217 54 325 16.0 42.0 0.00 0.03 0.03 71 1012.9
20260503150903 55 324 16.0 42.0 0.00 0.03 0.03 69 1012.6
20260503150816 55 324 16.0 42.0 0.00 0.03 0.03 69 1012.3
20260503150703 55 325 17.0 42.0 0.00 0.03 0.03 69 1012.4
20260503150616 55 328 17.0 42.0 0.00 0.03 0.03 69 1012.8
20260503150503 55 324 17.0 42.0 0.00 0.03 0.03 69 1012.4
20260503150416 55 321 17.0 42.0 0.00 0.03 0.03 69 1012.5
20260503150303 54 320 17.0 42.0 0.00 0.03 0.03 69 1012.6
20260503150216 54 318 18.0 42.0 0.00 0.03 0.03 69 1012.7
20260503150104 54 319 18.0 41.0 0.00 0.03 0.03 69 1012.6
20260503140303 55 323 18.0 42.0 0.00 0.03 0.03 68 1012.6
20260503140216 55 325 19.0 42.0 0.00 0.03 0.03 68 1012.4
20260503131416 56 326 16.0 37.0 0.00 0.03 0.03 63 1012.3
20260503131304 56 326 16.0 37.0 0.00 0.03 0.03 63 1012.3
20260503131217 56 324 16.0 37.0 0.00 0.03 0.03 62 1012.2
20260503131103 56 324 16.0 37.0 0.00 0.03 0.03 62 1012.2
20260503131016 56 323 16.0 39.0 0.00 0.03 0.03 62 1012.2
20260503130904 57 327 16.0 39.0 0.00 0.03 0.03 62 1012.2
20260503130816 57 330 16.0 39.0 0.00 0.03 0.03 63 1012.3
20260503130703 57 333 16.0 39.0 0.00 0.03 0.03 63 1012.1
20260503130616 57 332 16.0 41.0 0.00 0.03 0.03 63 1012.4
20260503130503 57 335 16.0 41.0 0.00 0.03 0.03 63 1012.1
20260503130416 57 336 15.0 41.0 0.00 0.03 0.03 63 1012.1
20260503130303 57 333 15.0 41.0 0.00 0.03 0.03 62 1012.1
20260503130216 57 332 15.0 41.0 0.00 0.03 0.03 61 1012.0
20260503130104 57 335 15.0 41.0 0.00 0.03 0.03 61 1012.1
20260503120217 54 319 19.0 42.0 0.00 0.03 0.03 68 1012.2
20260503120103 54 319 20.0 42.0 0.00 0.03 0.03 68 1012.3
20260503110803 57 317 17.0 61.0 0.00 0.03 0.03 59 1012.5
20260503110717 57 315 16.0 61.0 0.00 0.03 0.03 59 1012.4
20260503110603 57 314 16.0 61.0 0.00 0.03 0.03 60 1012.5
20260503110518 57 313 16.0 61.0 0.00 0.03 0.03 60 1012.5
20260503110403 56 312 15.0 61.0 0.00 0.03 0.03 61 1012.6
20260503110318 56 313 15.0 61.0 0.00 0.03 0.03 61 1012.5
20260503110204 56 314 15.0 44.0 0.00 0.03 0.03 62 1012.5
20260503110117 56 317 16.0 39.0 0.00 0.03 0.03 63 1012.6